Time,TemperatureF,DewpointF,PressureIn,WindDirection,WindDirectionDegrees,WindSpeedMPH,WindSpeedGustMPH,Humidity,HourlyPrecipIn,Conditions,Clouds,dailyrainin,SoftwareType,DateUTC
2013-06-20 00:00:00,61.5,8.4,29.56,NW,326,1.0,4.0,12,0.00,,,0.00,meteohub,2013-06-20 06:00:00,
2013-06-20 00:05:00,61.0,8.1,29.57,NW,321,2.0,4.0,12,0.00,,,0.00,meteohub,2013-06-20 06:05:00,
2013-06-20 00:10:00,61.0,8.1,29.57,WNW,288,1.0,5.0,12,0.00,,,0.00,meteohub,2013-06-20 06:10:00,
2013-06-20 00:15:00,60.4,9.3,29.57,WNW,293,2.0,5.0,13,0.00,,,0.00,meteohub,2013-06-20 06:15:00,
2013-06-20 00:20:00,60.3,9.1,29.56,NW,326,4.0,5.0,13,0.00,,,0.00,meteohub,2013-06-20 06:20:00,
2013-06-20 00:25:00,60.6,7.7,29.57,NW,325,1.0,5.0,12,0.00,,,0.00,meteohub,2013-06-20 06:25:00,
2013-06-20 00:30:00,60.3,9.1,29.57,NW,320,3.0,5.0,13,0.00,,,0.00,meteohub,2013-06-20 06:30:00,
2013-06-20 00:35:00,59.7,8.8,29.57,NW,304,2.0,4.0,13,0.00,,,0.00,meteohub,2013-06-20 06:35:00,
2013-06-20 00:40:00,59.4,8.4,29.57,NNW,335,1.0,4.0,13,0.00,,,0.00,meteohub,2013-06-20 06:40:00,
2013-06-20 00:45:00,59.7,8.8,29.57,WNW,287,1.0,3.0,13,0.00,,,0.00,meteohub,2013-06-20 06:45:00,
2013-06-20 00:51:00,59.9,9.0,29.57,NW,321,1.0,2.0,13,0.00,,,0.00,meteohub,2013-06-20 06:51:00,
2013-06-20 00:56:00,60.3,9.1,29.57,WNW,298,1.0,3.0,13,0.00,,,0.00,meteohub,2013-06-20 06:56:00,
2013-06-20 01:01:00,60.3,9.1,29.56,NW,321,0.0,3.0,13,0.00,,,0.00,meteohub,2013-06-20 07:01:00,
2013-06-20 01:06:00,59.7,8.8,29.57,NW,310,1.0,3.0,13,0.00,,,0.00,meteohub,2013-06-20 07:06:00,
2013-06-20 01:11:00,59.7,8.8,29.57,WNW,286,2.0,3.0,13,0.00,,,0.00,meteohub,2013-06-20 07:11:00,
2013-06-20 01:16:00,59.5,8.6,29.57,WNW,295,2.0,5.0,13,0.00,,,0.00,meteohub,2013-06-20 07:16:00,
2013-06-20 01:21:00,59.5,8.6,29.56,WNW,284,0.0,5.0,13,0.00,,,0.00,meteohub,2013-06-20 07:21:00,
2013-06-20 01:26:00,59.2,8.4,29.57,WNW,290,0.0,5.0,13,0.00,,,0.00,meteohub,2013-06-20 07:26:00,
2013-06-20 01:31:00,58.8,8.1,29.57,NW,318,2.0,2.0,13,0.00,,,0.00,meteohub,2013-06-20 07:31:00,
2013-06-20 01:36:00,57.9,10.6,29.57,NNE,33,0.0,4.0,15,0.00,,,0.00,meteohub,2013-06-20 07:36:00,
2013-06-20 01:41:00,56.7,10.9,29.57,North,5,3.0,4.0,16,0.00,,,0.00,meteohub,2013-06-20 07:41:00,
2013-06-20 01:46:00,55.0,10.9,29.56,NW,316,3.0,5.0,17,0.00,,,0.00,meteohub,2013-06-20 07:46:00,
2013-06-20 01:51:00,54.1,11.5,29.56,NW,317,2.0,5.0,18,0.00,,,0.00,meteohub,2013-06-20 07:51:00,
2013-06-20 01:56:00,54.5,10.6,29.57,NNW,329,2.0,5.0,17,0.00,,,0.00,meteohub,2013-06-20 07:56:00,
2013-06-20 02:01:00,54.5,10.6,29.57,NW,321,4.0,5.0,17,0.00,,,0.00,meteohub,2013-06-20 08:01:00,
2013-06-20 02:06:00,55.6,10.0,29.57,NNE,13,4.0,7.0,16,0.00,,,0.00,meteohub,2013-06-20 08:06:00,
2013-06-20 02:12:00,54.5,10.6,29.56,NNE,19,4.0,7.0,17,0.00,,,0.00,meteohub,2013-06-20 08:12:00,
2013-06-20 02:17:00,54.1,11.5,29.56,NNW,336,5.0,7.0,18,0.00,,,0.00,meteohub,2013-06-20 08:17:00,
2013-06-20 02:22:00,54.1,11.5,29.56,NW,326,6.0,7.0,18,0.00,,,0.00,meteohub,2013-06-20 08:22:00,
2013-06-20 02:27:00,53.8,11.3,29.56,NW,325,6.0,8.0,18,0.00,,,0.00,meteohub,2013-06-20 08:27:00,
2013-06-20 02:32:00,53.8,11.3,29.56,NW,322,4.0,8.0,18,0.00,,,0.00,meteohub,2013-06-20 08:32:00,
2013-06-20 02:37:00,53.4,10.9,29.56,NW,314,1.0,7.0,18,0.00,,,0.00,meteohub,2013-06-20 08:37:00,
2013-06-20 02:42:00,53.6,11.1,29.56,NW,321,2.0,7.0,18,0.00,,,0.00,meteohub,2013-06-20 08:42:00,
2013-06-20 02:47:00,53.8,11.3,29.56,NW,312,2.0,7.0,18,0.00,,,0.00,meteohub,2013-06-20 08:47:00,
2013-06-20 02:52:00,53.6,11.1,29.57,West,274,2.0,5.0,18,0.00,,,0.00,meteohub,2013-06-20 08:52:00,
2013-06-20 02:57:00,53.4,10.9,29.56,NW,316,1.0,5.0,18,0.00,,,0.00,meteohub,2013-06-20 08:57:00,
2013-06-20 03:02:00,53.8,11.3,29.56,NNW,329,3.0,4.0,18,0.00,,,0.00,meteohub,2013-06-20 09:02:00,
2013-06-20 03:07:00,53.8,11.3,29.56,NW,306,1.0,4.0,18,0.00,,,0.00,meteohub,2013-06-20 09:07:00,
2013-06-20 03:12:00,53.6,11.1,29.56,NW,312,1.0,4.0,18,0.00,,,0.00,meteohub,2013-06-20 09:12:00,
2013-06-20 03:17:00,53.6,11.1,29.56,NW,321,2.0,4.0,18,0.00,,,0.00,meteohub,2013-06-20 09:17:00,
2013-06-20 03:22:00,53.8,11.3,29.56,NW,321,2.0,4.0,18,0.00,,,0.00,meteohub,2013-06-20 09:22:00,
2013-06-20 03:27:00,53.4,10.9,29.56,NW,323,2.0,4.0,18,0.00,,,0.00,meteohub,2013-06-20 09:27:00,
2013-06-20 03:32:00,53.1,11.8,29.56,NW,316,3.0,5.0,19,0.00,,,0.00,meteohub,2013-06-20 09:32:00,
2013-06-20 03:37:00,52.5,11.5,29.56,NW,314,3.0,5.0,19,0.00,,,0.00,meteohub,2013-06-20 09:37:00,
2013-06-20 03:42:00,52.3,11.3,29.56,NW,319,2.0,5.0,19,0.00,,,0.00,meteohub,2013-06-20 09:42:00,
2013-06-20 03:47:00,52.9,11.7,29.56,NW,326,2.0,4.0,19,0.00,,,0.00,meteohub,2013-06-20 09:47:00,
2013-06-20 03:52:00,52.5,11.5,29.56,NW,321,0.0,4.0,19,0.00,,,0.00,meteohub,2013-06-20 09:52:00,
2013-06-20 03:57:00,52.2,11.1,29.56,NNW,330,4.0,5.0,19,0.00,,,0.00,meteohub,2013-06-20 09:57:00,
2013-06-20 04:02:00,52.5,11.5,29.56,NW,324,3.0,5.0,19,0.00,,,0.00,meteohub,2013-06-20 10:02:00,
2013-06-20 04:07:00,53.6,11.1,29.56,North,0,2.0,5.0,18,0.00,,,0.00,meteohub,2013-06-20 10:07:00,
2013-06-20 04:12:00,52.9,11.7,29.56,NW,326,2.0,5.0,19,0.00,,,0.00,meteohub,2013-06-20 10:12:00,
2013-06-20 04:17:00,52.9,10.6,29.57,WNW,288,1.0,4.0,18,0.00,,,0.00,meteohub,2013-06-20 10:17:00,
2013-06-20 04:22:00,54.3,9.1,29.57,NW,326,3.0,4.0,16,0.00,,,0.00,meteohub,2013-06-20 10:22:00,
2013-06-20 04:27:00,55.0,9.7,29.56,NW,319,2.0,4.0,16,0.00,,,0.00,meteohub,2013-06-20 10:27:00,
2013-06-20 04:32:00,54.5,10.6,29.56,WNW,300,0.0,4.0,17,0.00,,,0.00,meteohub,2013-06-20 10:32:00,
2013-06-20 04:37:00,54.5,10.6,29.56,NNW,330,4.0,4.0,17,0.00,,,0.00,meteohub,2013-06-20 10:37:00,
2013-06-20 04:42:00,53.2,9.5,29.57,NNW,336,3.0,4.0,17,0.00,,,0.00,meteohub,2013-06-20 10:42:00,
2013-06-20 04:47:00,52.9,10.6,29.57,WNW,298,1.0,5.0,18,0.00,,,0.00,meteohub,2013-06-20 10:47:00,
2013-06-20 04:52:00,52.0,10.9,29.57,NW,321,1.0,5.0,19,0.00,,,0.00,meteohub,2013-06-20 10:52:00,
2013-06-20 04:57:00,51.6,10.8,29.57,NNW,327,3.0,5.0,19,0.00,,,0.00,meteohub,2013-06-20 10:57:00,
2013-06-20 05:02:00,51.4,11.7,29.58,NNW,332,3.0,5.0,20,0.00,,,0.00,meteohub,2013-06-20 11:02:00,
2013-06-20 05:07:00,51.1,11.3,29.57,NNW,338,5.0,5.0,20,0.00,,,0.00,meteohub,2013-06-20 11:07:00,
2013-06-20 05:12:00,50.2,11.7,29.58,NNW,329,4.0,5.0,21,0.00,,,0.00,meteohub,2013-06-20 11:12:00,
2013-06-20 05:17:00,49.8,11.5,29.58,NW,321,5.0,5.0,21,0.00,,,0.00,meteohub,2013-06-20 11:17:00,
2013-06-20 05:22:00,49.5,12.2,29.58,NW,323,3.0,5.0,22,0.00,,,0.00,meteohub,2013-06-20 11:22:00,
2013-06-20 05:27:00,49.1,12.9,29.58,NW,326,2.0,5.0,23,0.00,,,0.00,meteohub,2013-06-20 11:27:00,
2013-06-20 05:32:00,49.3,13.1,29.58,NNW,335,4.0,5.0,23,0.00,,,0.00,meteohub,2013-06-20 11:32:00,
2013-06-20 05:37:00,49.3,13.1,29.58,NW,318,3.0,5.0,23,0.00,,,0.00,meteohub,2013-06-20 11:37:00,
2013-06-20 05:42:00,49.6,13.3,29.58,NNW,333,2.0,5.0,23,0.00,,,0.00,meteohub,2013-06-20 11:42:00,
2013-06-20 05:47:00,49.6,12.4,29.59,NW,326,2.0,6.0,22,0.00,,,0.00,meteohub,2013-06-20 11:47:00,
2013-06-20 05:52:00,49.8,12.6,29.60,WNW,298,2.0,6.0,22,0.00,,,0.00,meteohub,2013-06-20 11:52:00,
2013-06-20 05:57:00,50.4,11.8,29.60,NW,311,0.0,4.0,21,0.00,,,0.00,meteohub,2013-06-20 11:57:00,
2013-06-20 06:02:00,51.3,12.6,29.60,NNW,339,0.0,3.0,21,0.00,,,0.00,meteohub,2013-06-20 12:02:00,
2013-06-20 06:07:00,52.2,12.2,29.60,NNW,328,0.0,3.0,20,0.00,,,0.00,meteohub,2013-06-20 12:07:00,
2013-06-20 06:12:00,52.9,11.7,29.60,NNW,335,0.0,2.0,19,0.00,,,0.00,meteohub,2013-06-20 12:12:00,
2013-06-20 06:17:00,54.0,11.5,29.60,WSW,251,2.0,2.0,18,0.00,,,0.00,meteohub,2013-06-20 12:17:00,
2013-06-20 06:22:00,54.9,10.8,29.60,SW,215,4.0,4.0,17,0.00,,,0.00,meteohub,2013-06-20 12:22:00,
2013-06-20 06:27:00,55.8,11.7,29.60,SE,144,2.0,4.0,17,0.00,,,0.00,meteohub,2013-06-20 12:27:00,
2013-06-20 06:32:00,56.3,12.0,29.60,South,189,4.0,4.0,17,0.00,,,0.00,meteohub,2013-06-20 12:32:00,
2013-06-20 06:37:00,56.3,10.6,29.60,ESE,111,3.0,4.0,16,0.00,,,0.00,meteohub,2013-06-20 12:37:00,
2013-06-20 06:42:00,56.3,12.0,29.60,SSE,153,2.0,4.0,17,0.00,,,0.00,meteohub,2013-06-20 12:42:00,
2013-06-20 06:47:00,56.5,12.2,29.61,SSE,157,1.0,4.0,17,0.00,,,0.00,meteohub,2013-06-20 12:47:00,
2013-06-20 06:52:00,56.7,12.4,29.61,East,96,0.0,4.0,17,0.00,,,0.00,meteohub,2013-06-20 12:52:00,
2013-06-20 06:57:00,56.7,12.4,29.61,SSE,149,2.0,5.0,17,0.00,,,0.00,meteohub,2013-06-20 12:57:00,
2013-06-20 07:02:00,57.0,12.6,29.61,SSE,163,3.0,7.0,17,0.00,,,0.00,meteohub,2013-06-20 13:02:00,
2013-06-20 07:07:00,57.6,11.7,29.61,West,278,3.0,7.0,16,0.00,,,0.00,meteohub,2013-06-20 13:07:00,
2013-06-20 07:12:00,58.3,10.8,29.61,SSE,165,8.0,8.0,15,0.00,,,0.00,meteohub,2013-06-20 13:12:00,
2013-06-20 07:17:00,59.0,11.5,29.61,SSE,157,6.0,10.0,15,0.00,,,0.00,meteohub,2013-06-20 13:17:00,
2013-06-20 07:22:00,59.7,13.5,29.62,SSE,162,4.0,10.0,16,0.00,,,0.00,meteohub,2013-06-20 13:22:00,
2013-06-20 07:27:00,60.1,16.3,29.62,East,99,0.0,10.0,18,0.00,,,0.00,meteohub,2013-06-20 13:27:00,
2013-06-20 07:32:00,60.1,16.3,29.62,SE,136,1.0,8.0,18,0.00,,,0.00,meteohub,2013-06-20 13:32:00,
2013-06-20 07:37:00,59.7,17.4,29.62,SSE,148,0.0,7.0,19,0.00,,,0.00,meteohub,2013-06-20 13:37:00,
2013-06-20 07:42:00,59.5,14.7,29.62,SSE,159,4.0,6.0,17,0.00,,,0.00,meteohub,2013-06-20 13:42:00,
2013-06-20 07:47:00,59.5,14.7,29.62,SE,127,1.0,5.0,17,0.00,,,0.00,meteohub,2013-06-20 13:47:00,
2013-06-20 07:52:00,59.9,14.9,29.62,SSE,149,6.0,6.0,17,0.00,,,0.00,meteohub,2013-06-20 13:52:00,
2013-06-20 07:57:00,60.3,13.8,29.62,South,176,4.0,8.0,16,0.00,,,0.00,meteohub,2013-06-20 13:57:00,
2013-06-20 08:02:00,60.6,16.9,29.62,SSW,193,3.0,8.0,18,0.00,,,0.00,meteohub,2013-06-20 14:02:00,
2013-06-20 08:07:00,61.5,13.5,29.62,SE,125,2.0,8.0,15,0.00,,,0.00,meteohub,2013-06-20 14:07:00,
2013-06-20 08:12:00,62.8,14.4,29.62,South,183,9.0,10.0,15,0.00,,,0.00,meteohub,2013-06-20 14:12:00,
2013-06-20 08:17:00,63.5,13.5,29.62,South,183,11.0,11.0,14,0.00,,,0.00,meteohub,2013-06-20 14:17:00,
2013-06-20 08:22:00,63.7,11.8,29.62,ESE,123,9.0,13.0,13,0.00,,,0.00,meteohub,2013-06-20 14:22:00,
2013-06-20 08:27:00,63.7,11.8,29.62,SSW,210,5.0,14.0,13,0.00,,,0.00,meteohub,2013-06-20 14:27:00,
2013-06-20 08:32:00,63.9,10.2,29.62,South,172,8.0,14.0,12,0.00,,,0.00,meteohub,2013-06-20 14:32:00,
2013-06-20 08:37:00,64.2,12.4,29.62,WSW,245,6.0,16.0,13,0.00,,,0.00,meteohub,2013-06-20 14:37:00,
2013-06-20 08:42:00,64.4,12.4,29.62,SSE,166,9.0,16.0,13,0.00,,,0.00,meteohub,2013-06-20 14:42:00,
2013-06-20 08:47:00,64.8,10.9,29.62,SSW,208,11.0,15.0,12,0.00,,,0.00,meteohub,2013-06-20 14:47:00,
2013-06-20 08:52:00,64.9,11.1,29.62,SSE,148,9.0,15.0,12,0.00,,,0.00,meteohub,2013-06-20 14:52:00,
2013-06-20 08:57:00,65.1,11.3,29.62,SE,146,5.0,15.0,12,0.00,,,0.00,meteohub,2013-06-20 14:57:00,
2013-06-20 09:02:00,65.5,11.5,29.62,SSW,207,9.0,16.0,12,0.00,,,0.00,meteohub,2013-06-20 15:02:00,
2013-06-20 09:07:00,65.8,9.9,29.62,SE,146,12.0,16.0,11,0.00,,,0.00,meteohub,2013-06-20 15:07:00,
2013-06-20 09:12:00,66.2,12.0,29.62,SW,233,4.0,16.0,12,0.00,,,0.00,meteohub,2013-06-20 15:12:00,
2013-06-20 09:17:00,66.7,12.6,29.62,ESE,115,11.0,16.0,12,0.00,,,0.00,meteohub,2013-06-20 15:17:00,
2013-06-20 09:22:00,66.7,10.6,29.62,SSE,148,9.0,16.0,11,0.00,,,0.00,meteohub,2013-06-20 15:22:00,
2013-06-20 09:27:00,66.7,10.6,29.61,ESE,107,10.0,15.0,11,0.00,,,0.00,meteohub,2013-06-20 15:27:00,
2013-06-20 09:32:00,66.7,12.6,29.61,South,191,7.0,19.0,12,0.00,,,0.00,meteohub,2013-06-20 15:32:00,
2013-06-20 09:37:00,67.3,10.9,29.60,SSE,153,7.0,19.0,11,0.00,,,0.00,meteohub,2013-06-20 15:37:00,
2013-06-20 09:42:00,67.5,11.1,29.60,South,178,10.0,20.0,11,0.00,,,0.00,meteohub,2013-06-20 15:42:00,
2013-06-20 09:47:00,67.8,11.3,29.60,NE,46,3.0,20.0,11,0.00,,,0.00,meteohub,2013-06-20 15:47:00,
2013-06-20 09:52:00,68.2,11.7,29.60,South,172,11.0,20.0,11,0.00,,,0.00,meteohub,2013-06-20 15:52:00,
2013-06-20 09:57:00,68.4,11.8,29.60,SSE,165,7.0,19.0,11,0.00,,,0.00,meteohub,2013-06-20 15:57:00,
2013-06-20 10:02:00,68.4,11.8,29.60,WSW,239,7.0,19.0,11,0.00,,,0.00,meteohub,2013-06-20 16:02:00,
2013-06-20 10:07:00,68.4,11.8,29.60,SE,144,16.0,19.0,11,0.00,,,0.00,meteohub,2013-06-20 16:07:00,
2013-06-20 10:12:00,68.4,11.8,29.60,SSE,147,15.0,19.0,11,0.00,,,0.00,meteohub,2013-06-20 16:12:00,
2013-06-20 10:17:00,68.7,12.0,29.59,SSE,150,11.0,19.0,11,0.00,,,0.00,meteohub,2013-06-20 16:17:00,
2013-06-20 10:22:00,69.1,12.4,29.59,SE,134,10.0,19.0,11,0.00,,,0.00,meteohub,2013-06-20 16:22:00,
2013-06-20 10:27:00,69.3,12.6,29.59,South,188,2.0,22.0,11,0.00,,,0.00,meteohub,2013-06-20 16:27:00,
2013-06-20 10:32:00,70.2,13.1,29.59,SSE,153,10.0,22.0,11,0.00,,,0.00,meteohub,2013-06-20 16:32:00,
2013-06-20 10:37:00,69.8,12.9,29.59,ESE,110,6.0,22.0,11,0.00,,,0.00,meteohub,2013-06-20 16:37:00,
2013-06-20 10:42:00,69.6,12.7,29.58,SSE,147,12.0,21.0,11,0.00,,,0.00,meteohub,2013-06-20 16:42:00,
2013-06-20 10:47:00,69.8,12.9,29.59,ESE,115,18.0,21.0,11,0.00,,,0.00,meteohub,2013-06-20 16:47:00,
2013-06-20 10:52:00,70.0,13.1,29.58,South,181,11.0,21.0,11,0.00,,,0.00,meteohub,2013-06-20 16:52:00,
2013-06-20 10:57:00,70.3,13.3,29.58,SSE,153,16.0,20.0,11,0.00,,,0.00,meteohub,2013-06-20 16:57:00,
2013-06-20 11:02:00,70.7,13.6,29.58,SSE,150,9.0,20.0,11,0.00,,,0.00,meteohub,2013-06-20 17:02:00,
2013-06-20 11:07:00,71.2,14.0,29.57,ESE,122,11.0,20.0,11,0.00,,,0.00,meteohub,2013-06-20 17:07:00,
2013-06-20 11:12:00,71.2,11.8,29.57,SSE,158,14.0,20.0,10,0.00,,,0.00,meteohub,2013-06-20 17:12:00,
2013-06-20 11:17:00,71.2,11.8,29.57,SSE,153,13.0,20.0,10,0.00,,,0.00,meteohub,2013-06-20 17:17:00,
2013-06-20 11:22:00,71.2,11.8,29.57,South,177,9.0,20.0,10,0.00,,,0.00,meteohub,2013-06-20 17:22:00,
2013-06-20 11:27:00,72.0,12.4,29.57,SSW,205,10.0,21.0,10,0.00,,,0.00,meteohub,2013-06-20 17:27:00,
2013-06-20 11:32:00,72.1,12.6,29.57,SE,139,13.0,25.0,10,0.00,,,0.00,meteohub,2013-06-20 17:32:00,
2013-06-20 11:37:00,72.9,13.1,29.57,ESE,110,13.0,25.0,10,0.00,,,0.00,meteohub,2013-06-20 17:37:00,
2013-06-20 11:42:00,72.3,12.7,29.57,SSE,158,15.0,25.0,10,0.00,,,0.00,meteohub,2013-06-20 17:42:00,
2013-06-20 11:47:00,72.7,12.9,29.57,SSE,149,12.0,21.0,10,0.00,,,0.00,meteohub,2013-06-20 17:47:00,
2013-06-20 11:52:00,72.7,10.6,29.57,SW,236,10.0,21.0,9,0.00,,,0.00,meteohub,2013-06-20 17:52:00,
2013-06-20 11:57:00,73.0,13.3,29.56,SSE,149,16.0,19.0,10,0.00,,,0.00,meteohub,2013-06-20 17:57:00,
2013-06-20 12:02:00,73.0,10.9,29.56,SSE,165,14.0,22.0,9,0.00,,,0.00,meteohub,2013-06-20 18:02:00,
2013-06-20 12:07:00,73.4,11.1,29.56,ESE,105,8.0,23.0,9,0.00,,,0.00,meteohub,2013-06-20 18:07:00,
2013-06-20 12:12:00,73.4,11.1,29.56,SSE,150,11.0,23.0,9,0.00,,,0.00,meteohub,2013-06-20 18:12:00,
2013-06-20 12:17:00,73.2,10.9,29.56,SSE,158,10.0,19.0,9,0.00,,,0.00,meteohub,2013-06-20 18:17:00,
2013-06-20 12:22:00,73.8,11.5,29.56,ESE,121,8.0,20.0,9,0.00,,,0.00,meteohub,2013-06-20 18:22:00,
2013-06-20 12:27:00,73.9,9.0,29.55,SSW,192,9.0,20.0,8,0.00,,,0.00,meteohub,2013-06-20 18:27:00,
2013-06-20 12:32:00,73.8,11.5,29.55,South,187,16.0,23.0,9,0.00,,,0.00,meteohub,2013-06-20 18:32:00,
2013-06-20 12:37:00,73.9,11.5,29.55,SE,136,6.0,25.0,9,0.00,,,0.00,meteohub,2013-06-20 18:37:00,
2013-06-20 12:42:00,74.8,12.2,29.55,ESE,113,9.0,25.0,9,0.00,,,0.00,meteohub,2013-06-20 18:42:00,
2013-06-20 12:47:00,75.0,12.4,29.54,SSW,193,19.0,25.0,9,0.00,,,0.00,meteohub,2013-06-20 18:47:00,
2013-06-20 12:52:00,74.8,12.2,29.53,ESE,118,15.0,29.0,9,0.00,,,0.00,meteohub,2013-06-20 18:52:00,
2013-06-20 12:57:00,75.6,12.7,29.54,SSE,155,12.0,29.0,9,0.00,,,0.00,meteohub,2013-06-20 18:57:00,
2013-06-20 13:02:00,75.6,12.7,29.54,East,97,17.0,25.0,9,0.00,,,0.00,meteohub,2013-06-20 19:02:00,
2013-06-20 13:08:00,75.6,12.7,29.53,SSE,155,20.0,25.0,9,0.00,,,0.00,meteohub,2013-06-20 19:08:00,
2013-06-20 13:13:00,75.2,12.6,29.53,SSE,167,18.0,26.0,9,0.00,,,0.00,meteohub,2013-06-20 19:13:00,
2013-06-20 13:18:00,75.6,12.7,29.52,South,173,13.0,26.0,9,0.00,,,0.00,meteohub,2013-06-20 19:18:00,
2013-06-20 13:23:00,76.3,13.3,29.52,SSE,148,15.0,26.0,9,0.00,,,0.00,meteohub,2013-06-20 19:23:00,
2013-06-20 13:28:00,76.3,13.3,29.51,SSE,166,13.0,30.0,9,0.00,,,0.00,meteohub,2013-06-20 19:28:00,
2013-06-20 13:33:00,76.3,10.6,29.51,ESE,103,15.0,30.0,8,0.00,,,0.00,meteohub,2013-06-20 19:33:00,
2013-06-20 13:38:00,76.5,10.8,29.52,SSE,167,7.0,30.0,8,0.00,,,0.00,meteohub,2013-06-20 19:38:00,
2013-06-20 13:43:00,76.5,10.8,29.51,SE,139,14.0,29.0,8,0.00,,,0.00,meteohub,2013-06-20 19:43:00,
2013-06-20 13:48:00,76.8,11.1,29.51,ESE,118,12.0,27.0,8,0.00,,,0.00,meteohub,2013-06-20 19:48:00,
2013-06-20 13:53:00,77.2,11.3,29.51,SE,124,15.0,24.0,8,0.00,,,0.00,meteohub,2013-06-20 19:53:00,
2013-06-20 13:58:00,77.7,8.8,29.50,East,95,9.0,24.0,7,0.00,,,0.00,meteohub,2013-06-20 19:58:00,
2013-06-20 14:03:00,77.7,8.8,29.50,WSW,249,12.0,25.0,7,0.00,,,0.00,meteohub,2013-06-20 20:03:00,
2013-06-20 14:08:00,77.5,8.6,29.50,South,184,6.0,26.0,7,0.00,,,0.00,meteohub,2013-06-20 20:08:00,
2013-06-20 14:13:00,77.7,8.8,29.49,SE,128,10.0,26.0,7,0.00,,,0.00,meteohub,2013-06-20 20:13:00,
2013-06-20 14:18:00,78.1,9.0,29.49,SSE,148,18.0,27.0,7,0.00,,,0.00,meteohub,2013-06-20 20:18:00,
2013-06-20 14:23:00,78.3,9.1,29.49,ESE,123,18.0,27.0,7,0.00,,,0.00,meteohub,2013-06-20 20:23:00,
2013-06-20 14:29:00,78.1,9.0,29.49,ESE,107,25.0,25.0,7,0.00,,,0.00,meteohub,2013-06-20 20:29:00,
2013-06-20 14:34:00,77.7,8.8,29.49,SSE,150,14.0,24.0,7,0.00,,,0.00,meteohub,2013-06-20 20:34:00,
2013-06-20 14:39:00,78.6,5.9,29.49,SE,128,5.0,29.0,6,0.00,,,0.00,meteohub,2013-06-20 20:39:00,
2013-06-20 14:44:00,78.1,5.5,29.49,ESE,120,12.0,29.0,6,0.00,,,0.00,meteohub,2013-06-20 20:44:00,
2013-06-20 14:49:00,77.9,5.5,29.49,NE,56,7.0,29.0,6,0.00,,,0.00,meteohub,2013-06-20 20:49:00,
2013-06-20 14:54:00,78.6,5.9,29.49,SSE,150,8.0,25.0,6,0.00,,,0.00,meteohub,2013-06-20 20:54:00,
2013-06-20 14:59:00,78.8,6.1,29.49,SE,136,8.0,23.0,6,0.00,,,0.00,meteohub,2013-06-20 20:59:00,
2013-06-20 15:04:00,78.6,5.9,29.49,SE,127,10.0,21.0,6,0.00,,,0.00,meteohub,2013-06-20 21:04:00,
2013-06-20 15:09:00,78.4,1.9,29.48,SE,133,13.0,21.0,5,0.00,,,0.00,meteohub,2013-06-20 21:09:00,
2013-06-20 15:14:00,79.0,6.3,29.47,SE,144,7.0,25.0,6,0.00,,,0.00,meteohub,2013-06-20 21:14:00,
2013-06-20 15:19:00,80.1,3.0,29.48,SSW,201,9.0,25.0,5,0.00,,,0.00,meteohub,2013-06-20 21:19:00,
2013-06-20 15:24:00,81.0,11.1,29.48,SW,231,3.0,25.0,7,0.00,,,0.00,meteohub,2013-06-20 21:24:00,
2013-06-20 15:29:00,81.7,8.2,29.47,SW,226,5.0,23.0,6,0.00,,,0.00,meteohub,2013-06-20 21:29:00,
2013-06-20 15:34:00,81.7,8.2,29.47,SW,215,17.0,20.0,6,0.00,,,0.00,meteohub,2013-06-20 21:34:00,
2013-06-20 15:39:00,81.3,11.3,29.47,SW,226,9.0,26.0,7,0.00,,,0.00,meteohub,2013-06-20 21:39:00,
2013-06-20 15:44:00,81.9,8.2,29.47,WSW,239,12.0,29.0,6,0.00,,,0.00,meteohub,2013-06-20 21:44:00,
2013-06-20 15:49:00,82.4,8.8,29.47,SSW,201,13.0,29.0,6,0.00,,,0.00,meteohub,2013-06-20 21:49:00,
2013-06-20 15:55:00,81.7,8.2,29.47,West,278,10.0,24.0,6,0.00,,,0.00,meteohub,2013-06-20 21:55:00,
2013-06-20 16:00:00,80.8,7.5,29.47,SW,233,15.0,25.0,6,0.00,,,0.00,meteohub,2013-06-20 22:00:00,
2013-06-20 16:05:00,80.8,10.9,29.48,SSW,211,8.0,25.0,7,0.00,,,0.00,meteohub,2013-06-20 22:05:00,
2013-06-20 16:10:00,81.1,11.3,29.48,SE,137,12.0,25.0,7,0.00,,,0.00,meteohub,2013-06-20 22:10:00,
2013-06-20 16:15:00,81.0,11.1,29.48,West,273,4.0,23.0,7,0.00,,,0.00,meteohub,2013-06-20 22:15:00,
2013-06-20 16:20:00,80.2,10.6,29.48,WNW,292,3.0,20.0,7,0.00,,,0.00,meteohub,2013-06-20 22:20:00,
2013-06-20 16:25:00,80.4,10.8,29.48,WSW,252,9.0,20.0,7,0.00,,,0.00,meteohub,2013-06-20 22:25:00,
2013-06-20 16:30:00,81.1,11.3,29.48,SSE,162,8.0,18.0,7,0.00,,,0.00,meteohub,2013-06-20 22:30:00,
2013-06-20 16:35:00,81.9,11.8,29.48,WNW,294,7.0,18.0,7,0.00,,,0.00,meteohub,2013-06-20 22:35:00,
2013-06-20 16:40:00,81.1,11.3,29.48,WNW,293,17.0,18.0,7,0.00,,,0.00,meteohub,2013-06-20 22:40:00,
2013-06-20 16:45:00,81.1,14.2,29.48,SW,235,8.0,18.0,8,0.00,,,0.00,meteohub,2013-06-20 22:45:00,
2013-06-20 16:50:00,81.1,11.3,29.48,SSW,205,3.0,18.0,7,0.00,,,0.00,meteohub,2013-06-20 22:50:00,
2013-06-20 16:55:00,81.3,11.3,29.47,SSW,201,9.0,17.0,7,0.00,,,0.00,meteohub,2013-06-20 22:55:00,
2013-06-20 17:00:00,79.7,13.1,29.48,WNW,294,4.0,20.0,8,0.00,,,0.00,meteohub,2013-06-20 23:00:00,
2013-06-20 17:05:00,78.6,12.4,29.48,SSW,210,13.0,20.0,8,0.00,,,0.00,meteohub,2013-06-20 23:05:00,
2013-06-20 17:10:00,79.0,15.3,29.48,SW,224,6.0,20.0,9,0.00,,,0.00,meteohub,2013-06-20 23:10:00,
2013-06-20 17:16:00,80.2,16.3,29.48,SW,217,11.0,19.0,9,0.00,,,0.00,meteohub,2013-06-20 23:16:00,
2013-06-20 17:21:00,80.1,13.5,29.48,SE,137,7.0,19.0,8,0.00,,,0.00,meteohub,2013-06-20 23:21:00,
2013-06-20 17:26:00,80.2,10.6,29.47,SW,231,5.0,20.0,7,0.00,,,0.00,meteohub,2013-06-20 23:26:00,
2013-06-20 17:31:00,81.0,14.2,29.48,SSE,165,11.0,20.0,8,0.00,,,0.00,meteohub,2013-06-20 23:31:00,
2013-06-20 17:36:00,80.4,13.6,29.47,SSE,160,4.0,20.0,8,0.00,,,0.00,meteohub,2013-06-20 23:36:00,
2013-06-20 17:41:00,79.7,10.2,29.48,SW,217,9.0,19.0,7,0.00,,,0.00,meteohub,2013-06-20 23:41:00,
2013-06-20 17:46:00,78.3,12.2,29.47,NNW,334,5.0,21.0,8,0.00,,,0.00,meteohub,2013-06-20 23:46:00,
2013-06-20 17:51:00,78.6,12.4,29.47,SW,233,14.0,21.0,8,0.00,,,0.00,meteohub,2013-06-20 23:51:00,
2013-06-20 17:56:00,78.4,14.9,29.48,West,267,9.0,21.0,9,0.00,,,0.00,meteohub,2013-06-20 23:56:00,
2013-06-20 18:01:00,78.8,12.6,29.48,SSW,205,9.0,21.0,8,0.00,,,0.00,meteohub,2013-06-21 00:01:00,
2013-06-20 18:06:00,78.4,14.9,29.48,WSW,245,13.0,16.0,9,0.00,,,0.00,meteohub,2013-06-21 00:06:00,
2013-06-20 18:11:00,78.6,12.4,29.49,WSW,250,8.0,18.0,8,0.00,,,0.00,meteohub,2013-06-21 00:11:00,
2013-06-20 18:16:00,79.2,12.7,29.49,WSW,250,7.0,23.0,8,0.00,,,0.00,meteohub,2013-06-21 00:16:00,
2013-06-20 18:21:00,78.8,15.3,29.49,SSW,207,5.0,23.0,9,0.00,,,0.00,meteohub,2013-06-21 00:21:00,
2013-06-20 18:26:00,78.6,15.1,29.49,SSW,204,5.0,17.0,9,0.00,,,0.00,meteohub,2013-06-21 00:26:00,
2013-06-20 18:31:00,78.4,14.9,29.49,South,187,5.0,16.0,9,0.00,,,0.00,meteohub,2013-06-21 00:31:00,
2013-06-20 18:37:00,78.4,12.2,29.49,SSW,212,10.0,16.0,8,0.00,,,0.00,meteohub,2013-06-21 00:37:00,
2013-06-20 18:42:00,78.3,12.2,29.49,SW,218,8.0,18.0,8,0.00,,,0.00,meteohub,2013-06-21 00:42:00,
2013-06-20 18:47:00,77.7,11.7,29.49,SW,217,12.0,19.0,8,0.00,,,0.00,meteohub,2013-06-21 00:47:00,
2013-06-20 18:52:00,77.5,14.2,29.49,SW,233,6.0,19.0,9,0.00,,,0.00,meteohub,2013-06-21 00:52:00,
2013-06-20 18:57:00,77.2,14.0,29.49,SSW,204,8.0,16.0,9,0.00,,,0.00,meteohub,2013-06-21 00:57:00,
2013-06-20 19:02:00,76.5,13.5,29.49,SW,224,10.0,16.0,9,0.00,,,0.00,meteohub,2013-06-21 01:02:00,
2013-06-20 19:07:00,76.1,15.6,29.50,West,276,5.0,15.0,10,0.00,,,0.00,meteohub,2013-06-21 01:07:00,
2013-06-20 19:12:00,75.9,15.4,29.50,WNW,288,1.0,15.0,10,0.00,,,0.00,meteohub,2013-06-21 01:12:00,
2013-06-20 19:17:00,75.4,15.1,29.50,West,262,6.0,15.0,10,0.00,,,0.00,meteohub,2013-06-21 01:17:00,
2013-06-20 19:22:00,75.2,14.9,29.50,West,260,4.0,11.0,10,0.00,,,0.00,meteohub,2013-06-21 01:22:00,
2013-06-20 19:27:00,75.7,15.3,29.50,WSW,253,0.0,11.0,10,0.00,,,0.00,meteohub,2013-06-21 01:27:00,
2013-06-20 19:32:00,75.9,15.4,29.50,SSW,211,4.0,11.0,10,0.00,,,0.00,meteohub,2013-06-21 01:32:00,
2013-06-20 19:37:00,75.7,15.3,29.50,WSW,243,5.0,10.0,10,0.00,,,0.00,meteohub,2013-06-21 01:37:00,
2013-06-20 19:42:00,75.4,15.1,29.50,West,259,3.0,13.0,10,0.00,,,0.00,meteohub,2013-06-21 01:42:00,
2013-06-20 19:47:00,75.6,17.4,29.51,West,270,6.0,13.0,11,0.00,,,0.00,meteohub,2013-06-21 01:47:00,
2013-06-20 19:52:00,75.4,17.2,29.51,SW,231,3.0,11.0,11,0.00,,,0.00,meteohub,2013-06-21 01:52:00,
2013-06-20 19:57:00,74.8,16.9,29.51,SW,222,5.0,8.0,11,0.00,,,0.00,meteohub,2013-06-21 01:57:00,
2013-06-20 20:02:00,73.9,16.2,29.51,SW,236,4.0,8.0,11,0.00,,,0.00,meteohub,2013-06-21 02:02:00,
2013-06-20 20:07:00,73.0,17.4,29.51,SW,228,4.0,8.0,12,0.00,,,0.00,meteohub,2013-06-21 02:07:00,
2013-06-20 20:12:00,72.3,16.9,29.51,WSW,257,4.0,9.0,12,0.00,,,0.00,meteohub,2013-06-21 02:12:00,
2013-06-20 20:17:00,71.8,16.5,29.52,SW,236,8.0,11.0,12,0.00,,,0.00,meteohub,2013-06-21 02:17:00,
2013-06-20 20:22:00,71.8,16.5,29.52,West,267,12.0,12.0,12,0.00,,,0.00,meteohub,2013-06-21 02:22:00,
2013-06-20 20:27:00,72.3,14.9,29.52,West,280,6.0,16.0,11,0.00,,,0.00,meteohub,2013-06-21 02:27:00,
2013-06-20 20:32:00,72.7,15.1,29.53,SW,231,9.0,16.0,11,0.00,,,0.00,meteohub,2013-06-21 02:32:00,
2013-06-20 20:37:00,73.0,15.4,29.53,SW,232,5.0,16.0,11,0.00,,,0.00,meteohub,2013-06-21 02:37:00,
2013-06-20 20:42:00,72.9,15.3,29.53,SW,214,3.0,16.0,11,0.00,,,0.00,meteohub,2013-06-21 02:42:00,
2013-06-20 20:47:00,72.0,14.5,29.53,SW,232,3.0,16.0,11,0.00,,,0.00,meteohub,2013-06-21 02:47:00,
2013-06-20 20:52:00,71.4,14.2,29.53,WSW,241,4.0,11.0,11,0.00,,,0.00,meteohub,2013-06-21 02:52:00,
2013-06-20 20:57:00,71.2,16.0,29.54,SW,231,4.0,5.0,12,0.00,,,0.00,meteohub,2013-06-21 02:57:00,
2013-06-20 21:02:00,70.2,15.1,29.54,SW,217,4.0,7.0,12,0.00,,,0.00,meteohub,2013-06-21 03:02:00,
2013-06-20 21:07:00,70.9,15.8,29.54,SW,224,6.0,15.0,12,0.00,,,0.00,meteohub,2013-06-21 03:07:00,
2013-06-20 21:12:00,70.5,15.4,29.55,WSW,249,4.0,15.0,12,0.00,,,0.00,meteohub,2013-06-21 03:12:00,
2013-06-20 21:17:00,70.2,17.1,29.55,WSW,249,2.0,15.0,13,0.00,,,0.00,meteohub,2013-06-21 03:17:00,
2013-06-20 21:22:00,69.6,16.5,29.55,WSW,249,7.0,11.0,13,0.00,,,0.00,meteohub,2013-06-21 03:22:00,
2013-06-20 21:27:00,69.4,16.5,29.55,West,273,9.0,11.0,13,0.00,,,0.00,meteohub,2013-06-21 03:27:00,
2013-06-20 21:32:00,70.3,15.3,29.55,West,280,4.0,11.0,12,0.00,,,0.00,meteohub,2013-06-21 03:32:00,
2013-06-20 21:37:00,71.1,15.8,29.55,West,260,4.0,12.0,12,0.00,,,0.00,meteohub,2013-06-21 03:37:00,
2013-06-20 21:42:00,70.9,15.8,29.56,WSW,246,5.0,12.0,12,0.00,,,0.00,meteohub,2013-06-21 03:42:00,
2013-06-20 21:47:00,70.2,15.1,29.56,WNW,290,7.0,11.0,12,0.00,,,0.00,meteohub,2013-06-21 03:47:00,
2013-06-20 21:52:00,69.6,14.7,29.56,NW,307,2.0,12.0,12,0.00,,,0.00,meteohub,2013-06-21 03:52:00,
2013-06-20 21:57:00,70.0,15.1,29.57,WSW,252,4.0,12.0,12,0.00,,,0.00,meteohub,2013-06-21 03:57:00,
2013-06-20 22:01:00,69.6,14.7,29.57,WSW,245,4.0,12.0,12,0.00,,,0.00,meteohub,2013-06-21 04:01:00,
2013-06-20 22:02:00,69.6,14.7,29.57,West,267,3.0,12.0,12,0.00,,,0.00,meteohub,2013-06-21 04:02:00,
2013-06-20 22:07:00,69.6,14.7,29.57,West,270,6.0,7.0,12,0.00,,,0.00,meteohub,2013-06-21 04:07:00,
2013-06-20 22:11:00,69.4,14.5,29.57,WSW,256,8.0,8.0,12,0.00,,,0.00,meteohub,2013-06-21 04:11:00,
2013-06-20 22:16:00,70.2,15.1,29.57,WNW,285,4.0,8.0,12,0.00,,,0.00,meteohub,2013-06-21 04:16:00,
2013-06-20 22:21:00,69.3,16.3,29.57,SW,224,4.0,8.0,13,0.00,,,0.00,meteohub,2013-06-21 04:21:00,
2013-06-20 22:26:00,69.3,16.3,29.57,WSW,250,5.0,8.0,13,0.00,,,0.00,meteohub,2013-06-21 04:26:00,
2013-06-20 22:31:00,69.1,14.4,29.58,West,263,4.0,7.0,12,0.00,,,0.00,meteohub,2013-06-21 04:31:00,
2013-06-20 22:36:00,69.3,14.5,29.58,WSW,256,3.0,6.0,12,0.00,,,0.00,meteohub,2013-06-21 04:36:00,
2013-06-20 22:41:00,69.4,14.5,29.58,WSW,257,3.0,6.0,12,0.00,,,0.00,meteohub,2013-06-21 04:41:00,
2013-06-20 22:46:00,68.7,15.8,29.58,East,81,2.0,6.0,13,0.00,,,0.00,meteohub,2013-06-21 04:46:00,
2013-06-20 22:51:00,66.9,16.2,29.58,East,89,2.0,6.0,14,0.00,,,0.00,meteohub,2013-06-21 04:51:00,
2013-06-20 22:56:00,65.8,16.9,29.58,NNE,27,2.0,6.0,15,0.00,,,0.00,meteohub,2013-06-21 04:56:00,
2013-06-20 23:01:00,65.5,16.5,29.59,North,11,2.0,6.0,15,0.00,,,0.00,meteohub,2013-06-21 05:01:00,
2013-06-20 23:06:00,64.9,17.6,29.59,NNE,20,4.0,6.0,16,0.00,,,0.00,meteohub,2013-06-21 05:06:00,
2013-06-20 23:11:00,64.4,17.2,29.59,NW,308,2.0,6.0,16,0.00,,,0.00,meteohub,2013-06-21 05:11:00,
2013-06-20 23:16:00,63.7,16.7,29.59,NW,319,1.0,6.0,16,0.00,,,0.00,meteohub,2013-06-21 05:16:00,
2013-06-20 23:21:00,63.7,16.7,29.59,NW,310,2.0,6.0,16,0.00,,,0.00,meteohub,2013-06-21 05:21:00,
2013-06-20 23:27:00,63.7,16.7,29.59,NE,37,1.0,4.0,16,0.00,,,0.00,meteohub,2013-06-21 05:27:00,
2013-06-20 23:32:00,63.7,16.7,29.59,NW,311,1.0,3.0,16,0.00,,,0.00,meteohub,2013-06-21 05:32:00,
2013-06-20 23:37:00,63.1,17.6,29.59,NNW,332,2.0,4.0,17,0.00,,,0.00,meteohub,2013-06-21 05:37:00,
2013-06-20 23:42:00,62.2,16.9,29.59,NW,316,2.0,4.0,17,0.00,,,0.00,meteohub,2013-06-21 05:42:00,
2013-06-20 23:47:00,61.7,17.8,29.59,WNW,293,0.0,3.0,18,0.00,,,0.00,meteohub,2013-06-21 05:47:00,
2013-06-20 23:52:00,61.3,17.4,29.60,NW,312,2.0,4.0,18,0.00,,,0.00,meteohub,2013-06-21 05:52:00,
2013-06-20 23:57:00,61.2,17.2,29.59,NNW,329,2.0,4.0,18,0.00,,,0.00,meteohub,2013-06-21 05:57:00,